Temperature
18 19 19 18 15 13 16 17 18 20 21 22 22 22 20 21 21 22 22 22 22 22 22 22 22 21 21 20 20 19 19 18 17 17 17 17 16 16 17 17 16 16 16 17 16 16 17 16 17
18 19 19 18 14 15 16 17 19 20 22 22 22 22 21 21 21 21 22 22 22 21 21 22 22 21 21 21 20 20 19 19 18 17 17 17 16 16 16 17 17 17 16 16 16 16 16 16 17
18 19 18 14 15 15 19 20 19 20 22 22 21 21 21 21 21 21 21 22 21 21 21 21 21 21 21 21 20 20 19 19 18 17 17 17 16 16 16 17 17 17 17 16 16 16 16 16 17
18 18 17 14 17 16 17 19 20 19 22 22 21 20 20 20 20 21 21 21 21 21 21 20 20 20 20 20 20 20 19 19 18 18 17 17 16 16 16 16 16 16 17 17 16 16 16 16 16
18 18 14 14 16 16 16 18 20 20 21 21 21 19 19 20 20 21 21 21 21 21 21 20 20 20 19 19 20 20 19 19 18 17 17 17 16 16 16 16 16 16 16 16 16 16 16 16 17
18 14 13 14 15 16 16 19 20 20 20 21 20 18 19 19 20 21 21 21 21 21 21 20 19 19 18 18 18 19 19 19 18 17 17 16 16 16 16 16 16 16 16 16 16 16 16 16 16
17 12 14 15 15 16 18 20 20 20 20 20 20 18 19 19 20 20 21 21 21 21 21 20 19 19 18 18 17 17 18 18 18 17 17 17 16 16 15 15 16 16 16 16 16 16 16 16 16
18 13 15 14 16 17 19 20 21 20 20 20 20 18 19 19 20 20 20 20 20 20 20 20 19 18 18 17 17 17 17 17 17 17 17 16 16 16 16 16 16 15 15 15 16 16 15 15 15
18 13 14 15 17 18 19 20 21 21 21 21 21 21 20 20 19 19 19 19 19 19 19 19 18 18 18 17 17 16 16 16 16 17 17 17 16 17 17 16 16 15 15 15 15 15 15 15 15
17 13 15 16 17 19 19 20 21 20 19 19 20 20 20 19 18 18 18 19 19 18 18 18 18 17 17 17 16 16 15 15 15 15 16 16 16 16 16 17 16 16 15 15 15 15 15 15 15
16 14 15 16 18 19 19 20 21 19 18 20 21 21 19 18 18 18 18 18 18 18 17 18 18 17 17 17 16 15 15 15 15 14 14 14 15 16 16 17 16 16 16 15 15 15 15 15 15
15 14 16 17 19 19 19 19 19 19 20 21 21 20 19 18 18 18 17 17 17 17 17 17 17 17 16 16 16 15 14 14 14 14 13 14 14 14 15 16 16 16 15 14 14 14 14 14 14
15 15 17 18 18 18 18 18 18 19 21 20 20 19 18 18 17 17 16 16 16 16 16 16 16 16 15 15 14 14 14 13 13 13 12 12 12 13 13 13 14 14 14 13 13 13 14 14 14
16 16 16 17 18 17 17 16 17 19 20 19 19 19 18 18 17 17 16 16 15 15 16 16 16 16 15 15 14 14 13 13 12 12 12 12 12 12 12 12 12 12 13 13 13 13 13 13 13
16 15 15 16 16 17 17 16 16 19 19 18 18 18 17 17 16 16 16 16 15 15 15 15 15 15 15 15 15 14 14 13 12 12 11 11 11 11 11 11 12 12 12 12 13 13 13 13 13
15 14 15 15 15 17 17 15 16 19 18 17 18 17 17 17 16 16 15 15 15 15 15 15 15 15 15 15 14 14 13 13 12 11 11 11 11 11 11 11 11 11 12 12 12 13 13 12 12
14 14 15 14 15 16 16 14 14 18 17 16 17 17 17 16 16 15 15 15 15 15 15 15 14 14 14 14 14 13 12 12 11 11 11 11 11 11 11 11 11 11 11 12 12 12 12 12 12
15 14 14 13 14 14 14 13 14 17 16 15 16 16 16 16 16 15 15 14 14 14 14 14 14 14 14 13 13 12 11 11 11 11 11 11 10 10 11 11 11 11 11 11 11 12 12 12 12
14 14 13 12 13 14 13 13 14 15 14 13 14 15 16 16 16 15 14 14 14 14 14 14 14 13 13 12 12 11 11 11 10 10 10 10 10 11 11 11 10 10 10 11 11 11 11 11 12
14 14 12 12 13 13 11 11 12 11 12 14 14 14 15 15 15 14 14 13 13 13 13 13 13 13 12 12 11 10 10 10 10 10 10 10 10 10 10 10 10 10 10 10 10 11 11 11 11
14 13 13 12 11 10 10 11 12 13 13 14 14 15 15 14 14 14 13 13 13 13 13 13 13 12 12 11 10 10 10 10 10 10 10 10 10 9 9 9 9 9 9 9 9 10 10 10 10
12 13 12 11 10 9 10 10 10 10 10 11 13 14 15 15 14 12 12 12 12 13 13 13 12 12 11 10 10 10 9 9 9 9 9 9 9 9 9 9 9 9 9 9 9 9 9 9 9
13 12 11 10 10 8 8 8 9 9 12 12 10 13 15 15 15 13 12 12 12 12 12 12 12 11 11 10 10 9 9 9 9 9 9 9 8 8 8 8 8 8 8 8 8 8 8 8 8
11 11 10 8 7 9 10 8 9 9 12 10 9 12 14 14 15 14 12 12 12 12 12 12 12 11 10 10 9 9 9 9 8 8 8 8 8 8 8 8 8 8 8 8 8 8 8 8 8
10 10 9 9 9 9 9 9 9 10 10 10 8 10 11 12 13 13 13 12 12 12 12 12 11 11 10 9 9 9 9 8 8 8 8 8 8 8 8 8 7 7 7 7 7 7 7 7 7
10 10 10 9 8 7 8 8 9 9 9 9 9 8 9 9 11 12 12 11 12 12 12 11 11 11 10 10 9 9 8 8 8 8 8 8 8 7 7 7 7 7 7 7 7 7 7 7 7
11 9 9 8 6 6 6 6 7 9 7 6 6 7 7 8 9 10 10 10 11 11 11 11 11 11 10 10 9 9 8 8 7 7 7 7 7 7 7 7 7 7 7 7 7 7 7 7 7
10 8 6 7 7 7 6 6 7 7 5 4 5 5 6 7 8 9 9 9 10 11 11 11 11 10 10 10 9 9 8 7 7 7 7 7 7 6 6 6 6 6 6 6 6 6 6 6 6
9 9 8 6 5 5 5 7 7 5 3 3 3 5 6 6 6 6 7 8 9 10 10 10 10 10 10 9 9 8 8 7 7 6 6 6 6 6 6 5 5 5 5 5 5 5 6 6 6
9 8 6 5 5 4 4 7 6 4 4 4 4 5 5 4 4 4 5 6 7 8 9 9 9 9 9 8 8 7 7 6 6 6 6 6 6 5 5 4 4 4 4 4 4 4 4 4 5
Wind_Speed
5 5 3 4 5 4 4 6 4 4 4 3 2 4 8 5 3 1 3 1 1 5 10 16 17 16 16 15 14 12 11 10 9 8 7 7 8 8 7 7 7 6 7 7 7 7 7 6 6
2 3 5 5 5 1 6 5 5 6 3 1 2 5 5 2 2 4 5 5 3 6 9 12 16 16 15 15 14 13 12 11 10 8 7 7 8 7 7 7 7 7 8 8 8 8 8 8 7
3 5 5 5 3 4 5 5 5 6 4 0 2 3 3 1 5 5 6 8 4 6 8 11 15 15 15 14 14 13 12 10 10 9 7 6 5 6 7 7 7 8 8 8 8 8 8 8 7
4 5 6 4 4 7 6 6 3 6 5 2 4 3 2 3 5 6 10 5 5 6 8 10 14 14 14 14 14 13 12 10 10 9 8 8 7 7 6 6 7 8 8 9 9 9 9 8 7
5 5 4 2 6 7 6 6 3 3 5 3 4 4 1 6 7 8 9 5 4 5 5 8 13 14 14 14 14 14 12 11 10 10 9 9 9 7 6 5 6 7 8 9 10 11 11 10 9
5 5 3 4 7 8 8 5 2 2 4 3 5 6 2 5 7 9 9 7 2 4 5 5 11 13 13 14 14 14 13 13 12 11 10 10 9 9 7 7 6 7 8 9 10 12 12 12 11
5 5 3 4 5 7 6 3 2 1 1 3 2 7 3 2 4 5 6 7 8 5 4 4 6 9 11 13 14 14 14 14 13 11 10 10 9 9 9 8 7 8 9 10 10 12 13 12 13
6 4 1 3 4 6 5 4 1 3 2 0 2 6 6 4 2 0 5 7 7 7 4 1 4 6 7 9 13 14 13 13 12 11 10 8 7 7 7 6 6 8 9 10 11 12 13 12 14
4 4 3 5 5 5 4 3 1 2 4 1 2 5 5 2 1 2 5 6 6 6 5 5 3 4 6 7 9 11 12 12 12 10 9 7 4 4 5 7 8 10 11 10 11 13 14 13 14
4 3 7 5 4 4 4 4 4 3 2 4 5 5 2 2 3 6 5 5 6 6 6 6 5 4 4 5 6 6 7 7 8 7 7 6 6 7 7 8 9 11 11 12 12 12 12 12 9
6 7 6 6 6 6 5 6 4 5 8 10 11 9 6 4 5 6 5 3 3 3 5 6 6 4 3 3 3 3 4 4 5 7 7 5 5 5 6 5 7 8 9 8 9 8 6 7 7
5 7 7 6 4 5 6 5 5 8 12 9 9 7 8 8 8 8 7 4 2 3 5 6 7 6 3 1 1 1 1 2 3 5 5 4 2 4 3 3 5 5 5 5 5 3 5 6 7
5 6 5 8 9 8 8 9 7 10 10 2 5 8 10 10 8 6 6 5 4 3 4 5 6 7 6 5 4 2 1 1 2 3 4 5 4 4 4 3 3 5 5 4 5 5 5 6 5
4 5 8 9 9 5 6 7 5 12 4 5 7 10 10 10 9 6 7 6 5 4 4 4 6 6 6 6 5 4 3 2 2 3 4 5 4 4 3 3 4 4 4 4 4 4 4 3 3
3 6 10 6 4 4 2 8 8 8 1 7 10 10 9 9 9 9 9 8 7 5 4 4 5 6 6 5 4 3 3 3 2 2 3 3 4 4 4 3 3 3 3 3 2 3 2 2 3
3 5 6 7 6 4 1 9 11 6 5 10 11 10 10 9 9 9 9 8 7 6 5 5 4 6 6 4 3 2 2 2 2 2 3 2 1 2 2 2 3 2 1 1 2 2 3 3 3
5 4 5 9 4 4 2 10 12 8 6 12 12 11 10 9 9 9 8 7 7 6 6 5 5 5 4 4 4 3 2 2 2 2 2 3 4 5 2 3 2 1 1 2 3 3 3 3 3
4 5 5 7 6 5 6 11 18 15 11 13 11 9 10 11 12 8 8 7 6 5 6 6 5 5 4 4 4 4 4 4 3 3 3 3 4 5 4 4 5 3 2 3 3 4 3 2 2
3 5 8 8 6 5 10 15 20 22 13 12 11 9 10 11 8 7 8 7 6 5 6 5 5 4 4 4 3 3 3 3 3 4 5 6 5 4 3 3 4 4 4 4 4 3 3 2 1
3 6 7 8 5 5 9 12 14 13 9 8 8 9 10 10 7 8 8 7 6 6 6 6 6 5 3 3 2 2 0 1 2 2 4 6 6 6 4 4 3 3 3 5 4 3 2 2 2
4 5 6 8 9 6 7 9 8 7 7 7 7 6 9 10 10 10 9 9 6 7 8 7 7 6 4 3 2 2 2 2 3 3 3 4 4 4 4 4 3 2 3 3 3 3 3 2 3
5 5 6 7 7 6 5 7 7 8 12 10 12 13 13 13 9 8 8 9 8 8 8 8 8 6 5 4 3 3 3 2 2 2 2 3 2 2 3 3 3 2 2 3 2 2 2 3 2
6 6 6 4 3 4 2 4 9 7 6 8 12 14 14 13 9 8 8 9 9 8 8 8 7 6 5 4 4 4 3 2 2 2 3 3 2 1 1 2 2 2 1 2 2 3 3 3 3
4 6 4 4 4 4 3 4 8 5 3 7 10 13 15 15 9 7 8 8 8 7 6 6 7 6 5 4 4 3 3 3 3 2 2 2 2 2 3 3 3 2 1 2 3 4 4 4 4
9 7 6 8 5 6 3 4 9 7 4 4 9 13 16 15 10 7 9 9 9 9 8 7 7 6 4 3 2 2 3 2 2 2 1 1 2 3 5 4 3 3 3 4 4 4 5 5 5
4 3 2 4 6 7 6 7 8 5 5 7 9 11 14 16 14 11 10 9 9 10 9 8 9 8 5 4 2 3 2 2 1 1 2 2 2 2 4 4 4 4 4 4 4 4 6 5 6
1 1 1 1 5 6 8 8 10 6 14 17 20 23 23 23 21 16 12 10 10 10 10 9 9 7 6 6 7 7 6 5 5 5 4 4 3 3 5 4 4 4 4 3 3 3 4 4 6
2 4 4 1 4 7 9 7 5 9 12 18 21 19 18 18 19 17 13 11 11 10 9 8 9 8 8 9 9 8 7 5 4 4 4 4 3 4 4 4 5 5 4 4 3 3 4 5 6
4 1 1 1 3 4 8 9 1 6 8 10 11 12 14 17 19 18 16 14 13 12 11 9 7 7 8 9 10 9 6 4 3 4 4 4 3 4 5 5 6 6 6 5 4 5 5 6 7
1 2 3 2 6 5 7 13 3 3 7 10 13 16 16 16 19 20 21 20 17 15 11 7 6 7 8 8 9 9 5 3 4 4 3 3 4 4 5 6 6 6 6 6 6 6 5 5 6
Wind_Direction
67 96 75 57 50 43 270 255 240 264 237 220 198 156 146 151 167 189 311 343 162 148 173 184 184 187 189 191 195 198 209 212 207 205 221 222 229 226 228 233 236 229 220 210 194 182 177 176 174
109 102 57 60 78 339 269 254 249 242 257 138 117 116 119 138 292 294 328 317 193 159 171 182 187 191 193 195 198 203 207 210 210 205 219 226 229 221 225 236 240 237 233 222 210 196 184 181 177
95 56 80 73 121 210 250 249 250 285 308 272 68 54 122 13 324 316 324 308 168 162 177 187 191 196 199 201 203 206 206 214 213 205 217 231 238 228 227 234 241 239 237 231 220 207 194 185 181
78 46 55 79 235 231 235 260 277 299 318 78 120 91 11 21 332 314 319 305 186 185 188 197 197 201 205 208 209 208 207 219 218 211 220 232 243 245 247 249 250 244 241 235 225 211 197 190 185
57 74 61 318 257 259 257 269 248 283 311 348 128 135 353 343 335 342 341 338 233 218 205 211 209 207 208 212 214 214 213 223 229 225 226 235 241 243 252 274 272 253 248 243 229 212 199 194 192
54 68 97 252 266 285 287 275 253 270 312 344 130 145 188 342 1 341 352 14 343 209 196 215 222 215 214 217 219 220 218 223 231 235 232 238 244 247 252 266 281 269 254 247 236 220 209 200 200
106 106 184 244 286 291 283 288 227 242 294 341 161 158 228 315 347 338 12 40 49 81 148 186 213 217 218 219 223 226 225 223 229 237 240 241 249 257 259 265 276 287 262 250 243 235 228 214 207
122 108 217 250 252 272 282 313 232 179 200 279 142 178 219 229 295 356 49 49 51 50 52 160 198 202 210 219 222 225 228 227 227 236 250 257 258 279 291 297 296 302 288 256 246 242 241 230 218
93 81 242 234 223 266 292 323 316 136 137 152 214 215 215 217 131 82 37 25 26 25 22 9 315 235 211 210 219 224 226 228 227 230 238 251 260 271 282 286 291 294 298 289 264 250 246 243 229
100 172 234 228 225 260 290 278 265 216 223 233 248 240 193 103 113 97 76 52 28 11 359 3 347 302 239 217 206 212 216 222 222 216 222 229 232 241 248 262 276 283 290 295 288 268 253 247 232
171 204 237 250 243 256 272 269 243 213 242 232 226 219 183 158 140 131 122 93 48 5 6 356 353 340 257 217 180 193 205 209 212 214 219 225 234 245 254 261 272 274 276 277 276 266 231 211 205
197 239 233 259 257 269 257 259 254 218 231 240 224 186 177 178 177 169 158 148 117 56 23 10 9 21 35 113 139 170 194 203 211 220 223 219 226 242 246 246 256 256 251 249 246 221 205 199 193
226 267 260 258 270 254 253 248 255 256 253 259 171 172 187 190 192 189 179 169 150 99 43 20 27 36 43 51 42 39 332 261 251 247 239 222 221 239 247 258 257 251 241 229 234 215 205 199 193
254 267 283 280 272 264 247 269 257 266 257 199 198 202 205 201 193 184 190 184 162 120 72 35 46 46 54 53 45 32 17 351 309 271 254 231 217 219 225 248 262 261 246 232 224 214 209 203 200
303 315 313 300 315 312 313 301 257 281 244 234 233 228 222 220 208 198 195 185 171 141 92 56 63 51 54 52 47 47 30 29 15 324 299 243 219 224 226 234 253 261 267 252 225 198 182 206 217
32 15 323 310 336 338 345 279 279 314 251 256 249 243 237 233 225 219 205 188 168 136 109 72 68 60 51 40 27 28 30 40 35 12 5 355 284 236 228 250 255 252 244 165 173 177 192 210 218
28 352 300 303 318 348 313 270 278 294 262 263 256 244 239 242 240 228 216 195 160 138 125 101 75 62 48 37 30 25 24 27 24 26 18 5 9 17 13 345 326 215 137 121 124 128 151 196 226
312 296 285 282 297 343 294 273 286 286 259 262 268 260 244 238 234 219 210 189 155 141 124 108 83 61 52 41 35 32 35 27 26 20 15 25 35 35 34 25 13 20 66 83 90 104 126 173 199
239 257 275 271 295 322 275 279 288 292 298 283 277 270 262 255 246 219 197 173 158 143 116 102 87 65 67 59 45 30 13 359 17 24 31 33 34 37 46 41 33 38 54 61 76 103 103 106 147
259 278 284 294 315 293 285 286 282 288 285 284 305 314 296 283 252 219 194 182 182 155 135 125 119 113 112 124 136 135 61 328 333 350 32 34 30 28 34 41 48 65 76 63 57 64 87 56 46
294 250 274 289 319 324 330 317 313 317 335 359 14 341 324 301 257 224 198 191 187 179 169 158 153 143 134 131 121 96 73 36 8 356 3 9 19 26 30 33 53 89 111 109 95 89 99 70 18
290 271 263 283 328 305 10 303 289 308 325 346 352 347 341 329 286 238 206 191 195 198 184 167 163 160 155 138 127 131 139 172 229 276 307 330 17 33 30 23 33 74 113 126 135 129 132 121 74
270 290 277 281 266 298 290 222 287 316 330 343 337 335 333 331 301 250 221 210 210 204 191 179 171 171 161 151 147 145 165 207 243 273 299 316 339 25 56 32 22 40 121 168 180 170 175 173 167
313 326 354 53 68 308 243 189 285 272 276 313 323 329 330 329 312 250 228 224 224 217 209 192 185 186 166 155 160 174 188 214 241 259 276 303 334 357 21 11 359 333 273 242 232 220 206 201 201
34 37 357 348 349 260 314 244 252 266 291 314 323 324 326 323 309 269 235 229 226 218 216 209 206 206 186 178 178 181 190 208 241 260 259 334 11 6 0 1 330 301 279 271 257 247 245 223 211
347 119 144 282 279 294 310 256 261 286 339 6 356 341 341 342 329 295 261 242 235 228 221 215 217 211 183 170 133 93 98 118 117 92 100 74 47 10 1 352 328 306 287 268 245 237 246 233 230
354 163 140 214 294 291 277 285 305 338 13 11 6 1 354 348 338 316 289 265 248 241 233 222 220 208 169 142 115 93 84 87 91 84 80 70 44 32 18 358 338 321 310 299 275 246 255 240 232
65 112 71 64 290 290 291 280 266 352 0 7 1 347 336 333 333 329 313 294 280 264 250 233 219 194 157 138 128 115 101 96 100 94 77 61 32 9 347 332 321 315 315 319 310 279 268 258 252
27 26 155 185 211 248 290 282 129 29 22 352 325 318 325 329 330 327 321 310 294 277 255 229 196 158 137 127 118 108 95 90 83 73 54 33 11 351 330 310 303 303 304 308 303 286 274 261 264
22 27 91 351 289 241 263 283 61 47 340 334 328 325 324 326 328 327 322 314 302 284 257 208 160 134 118 114 104 91 84 86 83 70 45 20 4 349 326 312 306 302 299 296 285 281 283 276 274
Height
1505 1505 1506 1507 1511 1521 1518 1509 1502 1498 1495 1492 1492 1492 1493 1495 1498 1502 1498 1496 1495 1495 1494 1494 1493 1493 1494 1494 1495 1496 1498 1499 1500 1501 1502 1504 1505 1506 1507 1508 1509 1510 1511 1512 1512 1513 1514 1515 1516
1505 1506 1507 1508 1518 1526 1518 1505 1500 1495 1493 1492 1492 1491 1492 1493 1494 1495 1495 1495 1495 1495 1495 1494 1494 1494 1494 1494 1495 1496 1497 1498 1499 1500 1501 1503 1504 1505 1506 1507 1508 1509 1510 1511 1511 1512 1513 1514 1515
1505 1506 1508 1511 1520 1523 1510 1498 1496 1492 1492 1492 1492 1492 1492 1493 1493 1494 1494 1494 1495 1495 1495 1495 1495 1494 1494 1494 1494 1495 1496 1497 1498 1499 1500 1502 1503 1504 1505 1506 1507 1508 1509 1510 1510 1511 1512 1513 1514
1506 1507 1509 1516 1516 1512 1504 1496 1494 1493 1491 1492 1492 1493 1493 1493 1493 1493 1494 1494 1495 1495 1495 1495 1495 1494 1494 1494 1494 1494 1495 1496 1497 1498 1499 1500 1501 1502 1504 1505 1505 1507 1507 1508 1508 1509 1511 1511 1512
1506 1507 1514 1520 1514 1505 1498 1495 1494 1494 1493 1492 1493 1493 1493 1493 1493 1493 1493 1494 1494 1494 1494 1494 1494 1494 1494 1494 1494 1494 1494 1495 1495 1496 1497 1498 1499 1501 1502 1503 1504 1505 1506 1506 1507 1507 1508 1510 1511
1507 1509 1522 1523 1514 1504 1497 1494 1494 1494 1494 1494 1493 1493 1493 1493 1493 1492 1493 1492 1492 1492 1492 1491 1491 1491 1492 1492 1492 1492 1493 1493 1494 1494 1495 1496 1497 1498 1499 1501 1502 1503 1504 1504 1505 1506 1507 1508 1509
1508 1514 1519 1517 1514 1506 1497 1494 1493 1493 1494 1494 1494 1493 1493 1492 1491 1491 1491 1491 1490 1490 1490 1489 1489 1489 1489 1489 1489 1490 1490 1491 1492 1492 1493 1494 1495 1496 1497 1498 1499 1500 1501 1502 1503 1504 1505 1506 1507
1506 1512 1514 1516 1512 1504 1496 1493 1492 1492 1492 1493 1493 1492 1491 1490 1489 1489 1488 1488 1487 1487 1486 1486 1486 1486 1486 1487 1487 1487 1487 1488 1489 1490 1491 1491 1492 1493 1494 1494 1495 1497 1498 1499 1500 1501 1502 1503 1505
1506 1515 1517 1511 1506 1500 1494 1493 1492 1491 1490 1490 1490 1489 1488 1487 1487 1487 1486 1485 1484 1484 1483 1483 1483 1483 1484 1484 1485 1485 1485 1486 1486 1487 1488 1488 1489 1490 1490 1491 1492 1493 1494 1496 1497 1498 1499 1501 1502
1506 1515 1509 1502 1498 1496 1493 1492 1491 1490 1489 1488 1487 1485 1485 1485 1485 1485 1484 1484 1483 1482 1481 1481 1481 1481 1481 1482 1483 1483 1483 1484 1484 1484 1485 1485 1486 1486 1487 1488 1488 1489 1490 1492 1493 1494 1495 1497 1498
1503 1506 1501 1497 1495 1494 1492 1490 1488 1488 1487 1485 1483 1482 1482 1482 1483 1483 1482 1481 1481 1480 1479 1479 1478 1478 1478 1479 1479 1480 1481 1481 1481 1482 1482 1482 1483 1483 1483 1484 1485 1485 1486 1488 1490 1491 1492 1493 1495
1501 1498 1497 1494 1493 1492 1490 1487 1485 1483 1481 1481 1480 1480 1479 1480 1480 1480 1479 1479 1478 1478 1477 1477 1476 1475 1475 1475 1476 1477 1478 1478 1479 1479 1479 1479 1479 1479 1479 1480 1481 1481 1482 1484 1486 1487 1488 1490 1491
1500 1496 1494 1492 1490 1488 1486 1484 1483 1478 1478 1478 1477 1476 1476 1476 1477 1477 1477 1477 1477 1477 1477 1476 1475 1474 1473 1473 1474 1475 1476 1476 1477 1477 1477 1476 1476 1476 1476 1477 1477 1478 1479 1481 1483 1484 1485 1486 1488
1496 1495 1492 1489 1486 1484 1483 1481 1481 1473 1475 1474 1473 1473 1473 1474 1475 1475 1476 1476 1477 1477 1476 1475 1475 1474 1473 1473 1473 1473 1473 1473 1473 1474 1475 1475 1474 1474 1474 1474 1474 1475 1476 1477 1479 1480 1481 1483 1484
1495 1494 1490 1486 1485 1484 1484 1483 1478 1473 1474 1472 1471 1470 1471 1472 1472 1473 1474 1475 1475 1475 1475 1474 1474 1474 1473 1473 1473 1472 1471 1470 1470 1470 1471 1472 1472 1472 1472 1472 1472 1472 1473 1474 1475 1476 1477 1478 1480
1495 1498 1498 1489 1485 1484 1488 1489 1476 1473 1471 1469 1468 1468 1468 1469 1470 1471 1472 1473 1473 1473 1473 1473 1473 1472 1472 1472 1472 1471 1470 1469 1468 1467 1468 1469 1469 1469 1469 1469 1468 1468 1469 1470 1471 1472 1473 1474 1475
1502 1506 1502 1495 1486 1485 1487 1486 1473 1470 1469 1465 1463 1464 1465 1465 1466 1468 1469 1470 1471 1471 1471 1471 1471 1470 1470 1470 1470 1469 1469 1468 1467 1466 1466 1466 1467 1467 1466 1466 1465 1464 1465 1465 1466 1468 1469 1470 1471
1505 1505 1503 1500 1489 1487 1488 1484 1471 1464 1464 1460 1459 1460 1460 1461 1462 1465 1466 1466 1467 1468 1468 1469 1469 1468 1468 1467 1467 1467 1467 1467 1466 1465 1465 1465 1464 1464 1464 1464 1463 1462 1462 1462 1462 1463 1464 1465 1465
1501 1502 1504 1497 1489 1489 1486 1481 1470 1459 1459 1458 1455 1456 1457 1457 1459 1461 1462 1462 1463 1464 1465 1466 1466 1466 1466 1465 1465 1465 1465 1465 1464 1464 1464 1464 1464 1463 1462 1462 1461 1460 1460 1459 1459 1460 1460 1461 1461
1500 1502 1502 1495 1490 1489 1486 1482 1468 1460 1459 1457 1457 1458 1457 1455 1455 1456 1457 1458 1459 1461 1462 1462 1463 1463 1463 1462 1462 1462 1463 1464 1464 1463 1462 1462 1462 1462 1461 1461 1460 1459 1458 1457 1457 1458 1457 1457 1457
1499 1501 1500 1499 1494 1490 1489 1482 1472 1461 1458 1458 1459 1459 1457 1454 1451 1451 1452 1454 1456 1458 1459 1459 1459 1459 1460 1460 1460 1460 1460 1461 1462 1462 1461 1459 1459 1459 1459 1460 1460 1458 1456 1455 1455 1455 1455 1455 1454
1504 1497 1498 1498 1502 1502 1496 1497 1482 1471 1466 1461 1461 1458 1456 1453 1449 1448 1450 1451 1453 1455 1456 1456 1456 1456 1456 1457 1457 1457 1458 1458 1458 1458 1458 1457 1456 1456 1456 1457 1457 1456 1455 1454 1454 1454 1453 1453 1453
1500 1496 1497 1497 1499 1503 1499 1501 1488 1476 1470 1467 1465 1461 1458 1454 1451 1449 1450 1452 1452 1453 1453 1453 1454 1454 1454 1454 1454 1454 1454 1455 1455 1455 1455 1454 1453 1453 1454 1454 1454 1454 1453 1453 1452 1452 1452 1452 1452
1500 1498 1497 1503 1505 1505 1495 1502 1491 1480 1473 1472 1468 1464 1460 1456 1452 1449 1449 1451 1451 1451 1451 1451 1451 1451 1451 1452 1452 1452 1452 1452 1452 1451 1452 1451 1450 1450 1450 1450 1451 1451 1451 1451 1450 1450 1450 1449 1449
1504 1508 1512 1509 1509 1503 1494 1496 1488 1473 1472 1473 1472 1469 1465 1460 1455 1450 1448 1448 1448 1449 1448 1449 1449 1448 1448 1449 1449 1449 1449 1449 1448 1448 1448 1447 1445 1445 1445 1446 1447 1448 1448 1448 1447 1446 1446 1445 1445
1508 1510 1517 1521 1518 1510 1499 1493 1482 1473 1473 1473 1472 1470 1466 1461 1456 1451 1447 1445 1446 1447 1446 1446 1445 1445 1445 1445 1446 1446 1446 1445 1445 1444 1444 1443 1441 1440 1440 1441 1443 1444 1443 1443 1442 1441 1441 1440 1440
1509 1514 1515 1522 1523 1523 1506 1496 1483 1469 1471 1471 1469 1466 1464 1460 1457 1452 1448 1445 1444 1444 1443 1442 1442 1441 1440 1440 1442 1442 1442 1442 1441 1440 1439 1438 1436 1435 1435 1436 1437 1438 1437 1436 1436 1436 1435 1435 1435
1511 1517 1525 1524 1525 1519 1507 1498 1489 1480 1483 1478 1477 1475 1470 1463 1457 1451 1447 1445 1444 1442 1440 1439 1437 1436 1434 1434 1435 1436 1437 1437 1437 1436 1434 1432 1431 1431 1430 1431 1431 1431 1430 1429 1429 1429 1429 1429 1430
1515 1517 1520 1527 1532 1529 1518 1491 1484 1486 1485 1484 1480 1475 1469 1463 1457 1450 1445 1441 1439 1437 1436 1434 1431 1429 1428 1427 1428 1431 1432 1432 1431 1430 1429 1427 1426 1425 1424 1424 1423 1422 1421 1420 1420 1421 1422 1422 1422
1517 1520 1526 1532 1530 1529 1524 1496 1484 1484 1482 1481 1478 1473 1468 1463 1457 1449 1442 1435 1431 1428 1426 1425 1423 1421 1420 1422 1423 1426 1429 1428 1426 1424 1422 1421 1419 1417 1416 1415 1414 1413 1412 1411 1411 1412 1413 1413 1413